Weather History for Cumberland, MD

Change the Weather History Date:

Sunday, August 25, 2013

  Actual Average (KMRB) Record (KMRB)
Temperature  
Mean Temperature 66 °F 72 °F  
Max Temperature 80 °F 83 °F 98 °F (1943)
Min Temperature 53 °F 61 °F 42 °F (1927)
Degree Days  
Heating Degree Days 0 0  
Month to date heating degree days 0  
Since 1 June heating degree days 25  
Since 1 July heating degree days 1  
Cooling Degree Days 2 7  
Month to date cooling degree days 209  
Year to date cooling degree days 752  
Since 1 June cooling degree days 695  
Growing Degree Days 16 (Base 50)    
Moisture  
Dew Point 58 °F    
Average Humidity 78    
Maximum Humidity 100    
Minimum Humidity 39    
Precipitation  
Precipitation 0.00 in 0.10 in 1.35 in (1937)
Month to date precipitation 2.50  
Year to date precipitation 25.66  
Sea Level Pressure  
Sea Level Pressure 30.39 in    
Wind  
Wind Speed 1 mph (SSE)    
Max Wind Speed 8 mph    
Max Gust Speed -    
Visibility 7 miles    
Events      
T = Trace of Precipitation, MM = Missing Value Source: NWS Daily Summary

Daily Weather History Graph

Daily Weather History Graph

Search for Another Location

Airport:

Trip Planner

Search our weather history database for the weather conditions in past years. The results will help you decide how hot, cold, wet, or windy it might be!

Date:

Astronomy

Aug. 25, 2013 Rise Set
Actual Time 6:36 AM EDT 7:56 PM EDT
Civil Twilight 6:08 AM EDT 8:24 PM EDT
Nautical Twilight 5:35 AM EDT 8:57 PM EDT
Astronomical Twilight 4:59 AM EDT 9:33 PM EDT
Moon 10:27 PM EDT (8/25) 11:35 AM EDT (8/25)
Length of Visible Light 14h 15m
Length of Day
13h 19m
Waning Gibbous, 76% of the Moon is Illuminated
Aug 25
Waning Gibbous
Aug 28
Last Quarter
Sep 5
New
Sep 12
First Quarter
Sep 19
Full

Hourly Weather History & Observations

Time (EDT) Temp. Heat Index Dew Point Humidity Pressure Visibility Wind Dir Wind Speed Gust Speed Precip Events Conditions
12:00 AM 60.8 °F - 59.0 °F 94% 30.40 in 10.0 mi Calm Calm - N/A   Clear
12:20 AM 60.8 °F - 59.0 °F 94% 30.40 in 10.0 mi Calm Calm - N/A   Clear
12:40 AM 60.8 °F - 59.0 °F 94% 30.39 in 10.0 mi Calm Calm - N/A   Clear
1:00 AM 59.0 °F - 57.2 °F 94% 30.39 in 10.0 mi Calm Calm - N/A   Clear
1:20 AM 59.0 °F - 57.2 °F 94% 30.38 in 10.0 mi Calm Calm - N/A   Clear
1:40 AM 59.0 °F - 55.4 °F 88% 30.39 in 10.0 mi Calm Calm - N/A   Clear
2:00 AM 57.2 °F - 55.4 °F 94% 30.39 in 10.0 mi Calm Calm - N/A   Clear
2:20 AM 59.0 °F - 57.2 °F 94% 30.38 in 10.0 mi NNE 3.5 mph - N/A   Clear
2:40 AM 59.0 °F - 55.4 °F 88% 30.38 in 10.0 mi Calm Calm - N/A   Clear
3:00 AM 59.0 °F - 55.4 °F 88% 30.39 in 10.0 mi Calm Calm - N/A   Clear
3:21 AM 55.4 °F - 53.6 °F 94% 30.39 in 1.2 mi Calm Calm - N/A   Unknown
3:41 AM 55.4 °F - 53.6 °F 94% 30.39 in 0.8 mi Calm Calm - N/A   Unknown
4:01 AM 55.4 °F - 55.4 °F 100% 30.40 in 1.0 mi Calm Calm - N/A   Unknown
4:21 AM 55.4 °F - 55.4 °F 100% 30.40 in 1.5 mi Calm Calm - N/A   Unknown
4:41 AM 55.4 °F - 53.6 °F 94% 30.40 in 0.8 mi Calm Calm - N/A   Mostly Cloudy
5:01 AM 55.4 °F - 53.6 °F 94% 30.41 in 0.8 mi Calm Calm - N/A   Overcast
5:21 AM 53.6 °F - 53.6 °F 100% 30.42 in 0.5 mi Calm Calm - N/A   Mostly Cloudy
5:41 AM 53.6 °F - 53.6 °F 100% 30.43 in 0.8 mi Calm Calm - N/A   Scattered Clouds
6:01 AM 55.4 °F - 53.6 °F 94% 30.43 in 0.5 mi Calm Calm - N/A   Overcast
6:21 AM 53.6 °F - 53.6 °F 100% 30.44 in 0.8 mi Calm Calm - N/A   Overcast
6:41 AM 55.4 °F - 55.4 °F 100% 30.45 in 0.2 mi Calm Calm - N/A   Overcast
7:01 AM 55.4 °F - 55.4 °F 100% 30.45 in 0.2 mi Calm Calm - N/A   Overcast
7:21 AM 55.4 °F - 55.4 °F 100% 30.46 in 0.2 mi Calm Calm - N/A   Overcast
7:41 AM 55.4 °F - 55.4 °F 100% 30.46 in 0.2 mi Calm Calm - N/A   Overcast
8:01 AM 55.4 °F - 55.4 °F 100% 30.47 in 0.2 mi Calm Calm - N/A   Overcast
8:21 AM 55.4 °F - 55.4 °F 100% 30.47 in 0.5 mi Calm Calm - N/A   Overcast
8:41 AM 55.4 °F - 55.4 °F 100% 30.47 in 4.0 mi Calm Calm - N/A   Overcast
9:01 AM 57.2 °F - 55.4 °F 94% 30.47 in 5.0 mi Calm Calm - N/A   Overcast
9:21 AM 57.2 °F - 57.2 °F 100% 30.47 in 3.0 mi Calm Calm - N/A   Overcast
9:41 AM 59.0 °F - 57.2 °F 94% 30.47 in 5.0 mi Calm Calm - N/A   Overcast
10:01 AM 59.0 °F - 59.0 °F 100% 30.47 in 4.0 mi Calm Calm - N/A   Overcast
10:21 AM 59.0 °F - 59.0 °F 100% 30.46 in 2.5 mi Calm Calm - N/A   Overcast
10:41 AM 59.0 °F - 59.0 °F 100% 30.46 in 1.2 mi Calm Calm - N/A   Overcast
11:01 AM 62.6 °F - 60.8 °F 94% 30.45 in 4.0 mi Calm Calm - N/A   Mostly Cloudy
11:22 AM 64.4 °F - 60.8 °F 88% 30.45 in 7.0 mi South 3.5 mph - N/A   Scattered Clouds
11:42 AM 68.0 °F - 60.8 °F 78% 30.44 in 10.0 mi Calm Calm - N/A   Clear
12:02 PM 69.8 °F - 59.0 °F 68% 30.44 in 10.0 mi South 5.8 mph - N/A   Clear
12:22 PM 71.6 °F - 59.0 °F 64% 30.43 in 10.0 mi SE 3.5 mph - N/A   Clear
12:42 PM 73.4 °F - 60.8 °F 65% 30.41 in 10.0 mi SSW 4.6 mph - N/A   Clear
1:02 PM 77.0 °F - 60.8 °F 57% 30.40 in 10.0 mi SSW 5.8 mph - N/A   Clear
1:22 PM 77.0 °F - 59.0 °F 54% 30.40 in 10.0 mi South 3.5 mph - N/A   Clear
1:42 PM 77.0 °F - 60.8 °F 57% 30.40 in 10.0 mi Calm Calm - N/A   Scattered Clouds
2:02 PM 78.8 °F - 60.8 °F 54% 30.39 in 10.0 mi SE 4.6 mph - N/A   Scattered Clouds
2:22 PM 78.8 °F - 59.0 °F 51% 30.38 in 10.0 mi SE 4.6 mph - N/A   Scattered Clouds
2:42 PM 80.6 °F 81.1 °F 59.0 °F 48% 30.38 in 10.0 mi Calm Calm - N/A   Clear
3:02 PM 80.6 °F 80.8 °F 57.2 °F 45% 30.37 in 10.0 mi SE 4.6 mph - N/A   Scattered Clouds
3:22 PM 80.6 °F 80.5 °F 55.4 °F 42% 30.36 in 10.0 mi SW 3.5 mph - N/A   Scattered Clouds
3:42 PM 80.6 °F 81.1 °F 59.0 °F 48% 30.36 in 10.0 mi SSE 6.9 mph - N/A   Scattered Clouds
4:02 PM 80.6 °F 80.5 °F 55.4 °F 42% 30.35 in 10.0 mi South 4.6 mph - N/A   Clear
4:22 PM 80.6 °F 80.5 °F 55.4 °F 42% 30.34 in 10.0 mi South 8.1 mph - N/A   Clear
4:42 PM 80.6 °F 80.3 °F 53.6 °F 39% 30.33 in 10.0 mi Calm Calm - N/A   Clear
5:02 PM 80.6 °F 80.5 °F 55.4 °F 42% 30.33 in 10.0 mi South 4.6 mph - N/A   Clear
5:21 PM 80.6 °F 80.3 °F 53.6 °F 39% 30.32 in 10.0 mi South 3.5 mph - N/A   Clear
5:42 PM 80.6 °F 80.5 °F 55.4 °F 42% 30.32 in 10.0 mi SSE 3.5 mph - N/A   Clear
6:02 PM 80.6 °F 80.5 °F 55.4 °F 42% 30.32 in 10.0 mi SSE 4.6 mph - N/A   Clear
6:22 PM 80.6 °F 80.5 °F 55.4 °F 42% 30.32 in 10.0 mi SSE 4.6 mph - N/A   Clear
6:42 PM 78.8 °F - 57.2 °F 47% 30.30 in 10.0 mi South 6.9 mph - N/A   Clear
7:02 PM 77.0 °F - 60.8 °F 57% 30.31 in 10.0 mi Calm Calm - N/A   Clear
7:22 PM 75.2 °F - 59.0 °F 57% 30.30 in 10.0 mi Calm Calm - N/A   Clear
7:42 PM 73.4 °F - 59.0 °F 61% 30.30 in 10.0 mi Calm Calm - N/A   Clear
8:02 PM 71.6 °F - 59.0 °F 64% 30.30 in 10.0 mi Calm Calm - N/A   Clear
8:22 PM 71.6 °F - 60.8 °F 69% 30.30 in 10.0 mi Calm Calm - N/A   Clear
8:42 PM 71.6 °F - 60.8 °F 69% 30.31 in 10.0 mi Calm Calm - N/A   Clear
9:03 PM 69.8 °F - 60.8 °F 73% 30.31 in 10.0 mi Calm Calm - N/A   Clear
9:23 PM 68.0 °F - 60.8 °F 78% 30.31 in 10.0 mi Calm Calm - N/A   Clear
9:43 PM 68.0 °F - 62.6 °F 83% 30.32 in 10.0 mi Calm Calm - N/A   Clear
10:03 PM 68.0 °F - 62.6 °F 83% 30.32 in 10.0 mi North 4.6 mph - N/A   Clear
10:23 PM 68.0 °F - 60.8 °F 78% 30.32 in 10.0 mi North 3.5 mph - N/A   Clear
10:43 PM 64.4 °F - 60.8 °F 88% 30.33 in 10.0 mi Calm Calm - N/A   Clear
11:03 PM 64.4 °F - 60.8 °F 88% 30.33 in 10.0 mi Calm Calm - N/A   Clear
11:23 PM 62.6 °F - 60.8 °F 94% 30.34 in 10.0 mi Calm Calm - N/A   Clear
11:43 PM 62.6 °F - 60.8 °F 94% 30.32 in 10.0 mi Calm Calm - N/A   Clear